| time (UTC) | temp F | wind direction | speed MPH | gust MPH | rain 1hr in | rain 24hr in | rain mn in | humidity % | barometer mb |
| 20260507131557 | 46 | 266 | 0.0 | 4.0 | 0.00 | 0.40 | 0.00 | 78 | 1008.4 |
| 20260507130106 | 46 | 277 | 2.0 | 9.0 | 0.00 | 0.40 | 0.00 | 83 | 1008.2 |
| 20260507124624 | 45 | 308 | 1.0 | 7.0 | 0.00 | 0.40 | 0.00 | 87 | 1008.3 |
| 20260507123050 | 45 | 301 | 4.0 | 6.0 | 0.00 | 0.40 | 0.00 | 87 | 1008.2 |
| 20260507121549 | 45 | 308 | 6.0 | 10.0 | 0.00 | 0.40 | 0.00 | 86 | 1008.1 |
| 20260507120047 | 44 | 4 | 0.0 | 2.0 | 0.00 | 0.40 | 0.00 | 91 | 1008.0 |
| 20260507114605 | 44 | 349 | 0.0 | 2.0 | 0.00 | 0.40 | 0.00 | 92 | 1007.9 |
| 20260507113044 | 44 | 24 | 1.0 | 3.0 | 0.00 | 0.40 | 0.00 | 93 | 1008.0 |
| 20260507111543 | 43 | 326 | 0.0 | 3.0 | 0.00 | 0.40 | 0.00 | 93 | 1007.9 |
| 20260507110046 | 43 | 342 | 0.0 | 1.0 | 0.00 | 0.40 | 0.00 | 93 | 1007.9 |
| 20260507104550 | 42 | 342 | 0.0 | 1.0 | 0.00 | 0.40 | 0.00 | 93 | 1008.0 |
| 20260507103041 | 41 | 295 | 0.0 | 0.0 | 0.00 | 0.40 | 0.00 | 93 | 1008.0 |
| 20260507101542 | 40 | 184 | 0.0 | 0.0 | 0.00 | 0.40 | 0.00 | 93 | 1007.7 |
| 20260507100043 | 39 | 184 | 0.0 | 0.0 | 0.00 | 0.40 | 0.00 | 93 | 1007.6 |
| 20260507094542 | 39 | 184 | 0.0 | 1.0 | 0.00 | 0.40 | 0.00 | 93 | 1007.9 |
| 20260507093041 | 40 | 276 | 0.0 | 1.0 | 0.00 | 0.40 | 0.00 | 93 | 1007.8 |
| 20260507091541 | 40 | 276 | 0.0 | 1.0 | 0.00 | 0.40 | 0.00 | 93 | 1007.9 |
| 20260507090034 | 40 | 277 | 0.0 | 1.0 | 0.00 | 0.40 | 0.00 | 92 | 1007.9 |
| 20260507084534 | 42 | 288 | 0.0 | 1.0 | 0.00 | 0.40 | 0.00 | 93 | 1007.8 |
| 20260507081511 | 41 | 288 | 0.0 | 1.0 | 0.00 | 0.40 | 0.00 | 92 | 1007.7 |
| 20260507080008 | 41 | 288 | 0.0 | 0.0 | 0.00 | 0.40 | 0.00 | 91 | 1007.8 |
| 20260507074506 | 42 | 288 | 0.0 | 1.0 | 0.00 | 0.40 | 0.00 | 91 | 1007.8 |
| 20260507073002 | 43 | 290 | 0.0 | 2.0 | 0.00 | 0.40 | 0.00 | 91 | 1007.6 |
| 20260507071503 | 44 | 291 | 0.0 | 1.0 | 0.00 | 0.40 | 0.00 | 91 | 1007.2 |
| 20260507070116 | 44 | 295 | 0.0 | 2.0 | 0.00 | 0.40 | 0.00 | 91 | 1007.1 |
| 20260507064607 | 44 | 311 | 0.0 | 0.0 | 0.00 | 0.40 | 0.00 | 90 | 1007.2 |
| 20260507063101 | 44 | 318 | 0.0 | 4.0 | 0.00 | 0.40 | 0.00 | 90 | 1007.2 |
| 20260507061556 | 44 | 274 | 0.0 | 2.0 | 0.00 | 0.40 | 0.00 | 89 | 1007.5 |
| 20260507060127 | 44 | 297 | 2.0 | 5.0 | 0.00 | 0.40 | 0.00 | 89 | 1007.0 |
| 20260507054555 | 44 | 288 | 0.0 | 5.0 | 0.00 | 0.40 | 0.00 | 90 | 1007.7 |
| 20260507053053 | 44 | 295 | 2.0 | 5.0 | 0.00 | 0.40 | 0.00 | 89 | 1007.8 |
| 20260507051555 | 44 | 291 | 1.0 | 6.0 | 0.00 | 0.40 | 0.00 | 90 | 1007.5 |
| 20260507050050 | 45 | 283 | 1.0 | 6.0 | 0.00 | 0.40 | 0.00 | 90 | 1007.7 |
| 20260507044551 | 45 | 300 | 3.0 | 10.0 | 0.00 | 0.40 | 0.00 | 90 | 1007.2 |
| 20260507043047 | 45 | 281 | 2.0 | 7.0 | 0.00 | 0.40 | 0.00 | 90 | 1007.4 |
| 20260507041544 | 45 | 284 | 1.0 | 7.0 | 0.00 | 0.40 | 0.00 | 90 | 1007.1 |
| 20260507040040 | 45 | 272 | 1.0 | 8.0 | 0.00 | 0.40 | 0.00 | 90 | 1007.0 |
| 20260507034540 | 45 | 257 | 2.0 | 7.0 | 0.00 | 0.40 | 0.40 | 90 | 1007.0 |
| 20260507033039 | 46 | 312 | 3.0 | 10.0 | 0.00 | 0.40 | 0.40 | 89 | 1007.4 |
| 20260507031535 | 46 | 276 | 4.0 | 10.0 | 0.01 | 0.40 | 0.40 | 90 | 1007.4 |
| 20260507030034 | 46 | 302 | 5.0 | 12.0 | 0.01 | 0.40 | 0.40 | 90 | 1007.3 |
| 20260507024532 | 46 | 306 | 5.0 | 15.0 | 0.01 | 0.40 | 0.40 | 90 | 1007.5 |
| 20260507023031 | 46 | 307 | 6.0 | 14.0 | 0.01 | 0.40 | 0.40 | 91 | 1007.7 |
| 20260507021531 | 47 | 285 | 7.0 | 13.0 | 0.01 | 0.39 | 0.39 | 90 | 1007.6 |
| 20260507020039 | 47 | 293 | 8.0 | 11.0 | 0.01 | 0.39 | 0.39 | 91 | 1007.5 |
| 20260507014526 | 47 | 285 | 8.0 | 16.0 | 0.02 | 0.39 | 0.39 | 91 | 1007.5 |
| 20260507013040 | 48 | 300 | 7.0 | 12.0 | 0.02 | 0.39 | 0.39 | 92 | 1007.3 |
| 20260507011523 | 48 | 289 | 8.0 | 16.0 | 0.01 | 0.38 | 0.38 | 91 | 1007.2 |
| 20260507010019 | 48 | 295 | 8.0 | 16.0 | 0.01 | 0.38 | 0.38 | 91 | 1006.9 |
| 20260507004517 | 48 | 299 | 11.0 | 15.0 | 0.00 | 0.37 | 0.37 | 91 | 1006.5 |
| 20260507003014 | 49 | 333 | 5.0 | 14.0 | 0.00 | 0.37 | 0.37 | 90 | 1006.5 |
| 20260507001511 | 49 | 296 | 7.0 | 15.0 | 0.00 | 0.37 | 0.37 | 91 | 1006.1 |
| 20260507000009 | 50 | 318 | 8.0 | 13.0 | 0.01 | 0.37 | 0.37 | 91 | 1005.7 |
| 20260506234505 | 51 | 301 | 2.0 | 9.0 | 0.02 | 0.37 | 0.37 | 91 | 1005.2 |
| 20260506233005 | 51 | 296 | 0.0 | 10.0 | 0.02 | 0.37 | 0.37 | 91 | 1005.2 |
| 20260506231503 | 52 | 298 | 3.0 | 11.0 | 0.02 | 0.37 | 0.37 | 91 | 1004.8 |
| 20260506230106 | 53 | 307 | 6.0 | 13.0 | 0.01 | 0.36 | 0.36 | 90 | 1004.6 |
| 20260506224600 | 55 | 306 | 4.0 | 12.0 | 0.00 | 0.35 | 0.35 | 90 | 1004.3 |
| 20260506223059 | 56 | 278 | 2.0 | 6.0 | 0.00 | 0.35 | 0.35 | 91 | 1004.1 |
| 20260506221601 | 56 | 283 | 3.0 | 10.0 | 0.01 | 0.35 | 0.35 | 91 | 1003.9 |
| 20260506220100 | 58 | 306 | 5.0 | 13.0 | 0.05 | 0.35 | 0.35 | 91 | 1003.8 |
| 20260506214601 | 59 | 308 | 9.0 | 12.0 | 0.09 | 0.43 | 0.35 | 92 | 1003.5 |
| 20260506213056 | 58 | 299 | 4.0 | 7.0 | 0.09 | 0.43 | 0.35 | 92 | 1003.4 |
| 20260506211608 | 59 | 285 | 0.0 | 0.0 | 0.09 | 0.42 | 0.34 | 92 | 1003.3 |
| 20260506210054 | 58 | 285 | 0.0 | 1.0 | 0.04 | 0.37 | 0.28 | 92 | 1003.4 |
| 20260506204553 | 59 | 290 | 1.0 | 3.0 | 0.01 | 0.36 | 0.26 | 90 | 1003.4 |
| 20260506203052 | 60 | 94 | 0.0 | 1.0 | 0.02 | 0.36 | 0.26 | 91 | 1003.4 |
| 20260506201551 | 60 | 91 | 0.0 | 1.0 | 0.02 | 0.35 | 0.25 | 91 | 1003.5 |
| 20260506200051 | 61 | 91 | 0.0 | 0.0 | 0.03 | 0.35 | 0.25 | 91 | 1003.6 |
| 20260506194550 | 60 | 91 | 0.0 | 2.0 | 0.04 | 0.35 | 0.25 | 91 | 1003.8 |
| 20260506193046 | 61 | 137 | 0.0 | 0.0 | 0.05 | 0.34 | 0.24 | 91 | 1003.9 |
| 20260506191543 | 60 | 100 | 0.0 | 0.0 | 0.06 | 0.33 | 0.23 | 91 | 1004.1 |
| 20260506190041 | 60 | 128 | 0.0 | 1.0 | 0.08 | 0.32 | 0.22 | 91 | 1004.3 |
| 20260506184540 | 60 | 139 | 0.0 | 1.0 | 0.10 | 0.31 | 0.21 | 91 | 1004.5 |
| 20260506183039 | 60 | 104 | 0.0 | 3.0 | 0.11 | 0.28 | 0.19 | 91 | 1004.5 |
| 20260506181537 | 60 | 164 | 0.0 | 4.0 | 0.11 | 0.27 | 0.17 | 91 | 1004.6 |
| 20260506180040 | 60 | 110 | 0.0 | 7.0 | 0.09 | 0.24 | 0.14 | 91 | 1004.7 |
| 20260506174533 | 60 | 138 | 0.0 | 2.0 | 0.07 | 0.21 | 0.11 | 91 | 1005.0 |
| 20260506173038 | 60 | 136 | 0.0 | 1.0 | 0.05 | 0.18 | 0.08 | 91 | 1005.2 |
| 20260506171530 | 60 | 278 | 0.0 | 0.0 | 0.04 | 0.16 | 0.06 | 92 | 1005.2 |
| 20260506170027 | 58 | 278 | 0.0 | 2.0 | 0.03 | 0.15 | 0.05 | 91 | 1005.4 |
| 20260506164525 | 57 | 291 | 0.0 | 2.0 | 0.03 | 0.14 | 0.04 | 90 | 1005.6 |
| 20260506163027 | 58 | 290 | 0.0 | 1.0 | 0.03 | 0.13 | 0.03 | 89 | 1005.7 |
| 20260506161527 | 59 | 323 | 0.0 | 0.0 | 0.02 | 0.12 | 0.02 | 89 | 1005.7 |
| 20260506160021 | 59 | 323 | 0.0 | 0.0 | 0.02 | 0.12 | 0.02 | 88 | 1006.1 |
| 20260506154519 | 58 | 323 | 0.0 | 0.0 | 0.01 | 0.11 | 0.01 | 88 | 1006.5 |
| 20260506153016 | 58 | 323 | 0.0 | 0.0 | 0.00 | 0.10 | 0.00 | 87 | 1006.9 |
| 20260506151516 | 58 | 323 | 0.0 | 2.0 | 0.00 | 0.10 | 0.00 | 87 | 1007.1 |
| 20260506150017 | 58 | 311 | 5.0 | 6.0 | 0.00 | 0.10 | 0.00 | 85 | 1006.9 |
| 20260506144514 | 58 | 296 | 3.0 | 3.0 | 0.00 | 0.10 | 0.00 | 85 | 1006.8 |
| 20260506143015 | 58 | 300 | 1.0 | 2.0 | 0.00 | 0.10 | 0.00 | 85 | 1006.9 |
| 20260506141513 | 58 | 293 | 0.0 | 1.0 | 0.00 | 0.10 | 0.00 | 84 | 1007.0 |
| 20260506140013 | 58 | 293 | 1.0 | 3.0 | 0.00 | 0.10 | 0.00 | 85 | 1007.0 |
| 20260506134510 | 57 | 319 | 0.0 | 1.0 | 0.00 | 0.10 | 0.00 | 88 | 1006.9 |
| 20260506133013 | 57 | 5 | 0.0 | 0.0 | 0.00 | 0.10 | 0.00 | 88 | 1007.0 |